Location: Unspecified
(0.0000°N, 0.0000°E)
Time: 06:20:27
(UTC+02:00)

N. Korean satellite - Visible Passes

Search period start: 17 October 2021 00:00
Search period end: 27 October 2021 00:00
Orbit: 450 x 495 km, 97.3° (Epoch: 16 October)

Date Brightness Start Highest point End Pass type
(mag) Time Alt. Az. Time Alt. Az. Time Alt. Az.
17 Oct 9.0 06:23:41 10° NE 06:26:43 25° E 06:29:44 10° SSE visible
19 Oct 6.5 07:00:09 10° N 07:03:44 68° W 07:07:17 10° SSW visible
20 Oct 8.2 06:32:25 10° NNE 06:35:45 36° E 06:39:03 10° SSE visible
21 Oct 10.0 06:06:06 10° ENE 06:07:44 13° E 06:09:23 10° SE visible
22 Oct 6.8 07:09:15 10° N 07:12:42 45° W 07:16:07 10° SSW visible
23 Oct 7.4 06:41:12 10° NNE 06:44:41 52° E 06:48:08 10° S visible
24 Oct 9.6 06:14:12 10° ENE 06:16:39 18° E 06:19:04 10° SE visible
26 Oct 6.6 06:49:57 10° NNE 06:53:31 78° ESE 06:57:01 10° S visible
